Tracking 31028 objects as of 17-Jul-2025
HD Live streaming from Space Station
objects crossing your sky now

CUBEBUG 2

Track CUBEBUG 2 now!
10-day predictions
CUBEBUG 2 is classified as:


NORAD ID: 39440
Int'l Code: 2013-066AA
Perigee: 560.5 km
Apogee: 648.8 km
Inclination: 97.9 °
Period: 96.6 minutes
Semi major axis: 6975 km
RCS: Unknown
Launch date: November 21, 2013
Source: Argentina (ARGN)
Launch site: Orenburg, Russia (OREN)

Uplink (MHz):
Downlink (MHz): 437.445
Beacon (MHz):
Mode: 1k2AFSK 9k6* FSK
Call sign: CUBEB2-6
Status: Active


Uplink (MHz):
Downlink (MHz): 437.445
Beacon (MHz):
Mode: 1k2AFSK 9k6FSK
Call sign: CUBEB2-6
Status: Active

Your satellite tracking list
Your tracking list is empty




NASA's NSSDC Master Catalog

Two Line Element Set (TLE):
1 39440U 13066AA  25197.81377700  .00003003  00000-0  30479-3 0  9995
2 39440  97.8502 142.1224 0063286  58.0341 302.7008 14.90140624626987
Source of the keplerian elements: Caltech